| time (UTC) | temp F | wind direction | speed knots | gust knots | rain 1hr in | rain 24hr in | rain mn in | humidity % | barometer mb |
| 20260902203857 | 74 | 252 | 0.0 | 0.9 | 0.00 | 0.00 | 0.00 | 25 | 1023.8 |
| 20260902203352 | 74 | 289 | 0.0 | 0.9 | 0.00 | 0.00 | 0.00 | 25 | 1023.8 |
| 20260902202845 | 75 | 58 | 0.0 | 1.7 | 0.00 | 0.00 | 0.00 | 25 | 1024.1 |
| 20260902202340 | 75 | 267 | 0.0 | 1.7 | 0.00 | 0.00 | 0.00 | 23 | 1024.1 |
| 20260902202329 | 76 | 83 | 0.0 | 0.0 | 0.00 | 0.00 | 0.00 | 25 | 1024.1 |
| 20260902201935 | 75 | 192 | 0.0 | 1.7 | 0.00 | 0.00 | 0.00 | 27 | 1024.1 |
| 20260902200827 | 77 | 307 | 0.0 | 0.9 | 0.00 | 0.00 | 0.00 | 22 | 1024.1 |
| 20260902200823 | 76 | 333 | 0.0 | 0.9 | 0.00 | 0.00 | 0.00 | 23 | 1024.1 |
| 20260902195810 | 77 | 227 | 0.0 | 1.7 | 0.00 | 0.00 | 0.00 | 23 | 1024.1 |
| 20260902195306 | 78 | 279 | 0.0 | 1.7 | 0.00 | 0.00 | 0.00 | 24 | 1024.1 |
| 20260902194800 | 78 | 14 | 0.0 | 0.9 | 0.00 | 0.00 | 0.00 | 22 | 1024.1 |
| 20260902194253 | 78 | 355 | 0.0 | 0.0 | 0.00 | 0.00 | 0.00 | 17 | 1024.1 |
| 20260902193748 | 77 | 328 | 0.0 | 0.0 | 0.00 | 0.00 | 0.00 | 18 | 1024.5 |
| 20260902193743 | 77 | 27 | 0.0 | 0.0 | 0.00 | 0.00 | 0.00 | 14 | 1024.1 |
| 20260902192737 | 77 | 154 | 0.0 | 0.0 | 0.00 | 0.00 | 0.00 | 16 | 1024.1 |
| 20260902192730 | 76 | 344 | 0.0 | 0.0 | 0.00 | 0.00 | 0.00 | 18 | 1024.1 |
| 20260902191725 | 76 | 130 | 0.0 | 0.0 | 0.00 | 0.00 | 0.00 | 16 | 1024.5 |
| 20260902191218 | 76 | 136 | 0.0 | 0.0 | 0.00 | 0.00 | 0.00 | 18 | 1024.5 |
| 20260902190712 | 75 | 134 | 0.0 | 0.0 | 0.00 | 0.00 | 0.00 | 21 | 1024.5 |
| 20260902190208 | 75 | 332 | 0.0 | 0.0 | 0.00 | 0.00 | 0.00 | 18 | 1024.5 |
| 20260902185700 | 74 | 220 | 0.0 | 0.0 | 0.00 | 0.00 | 0.00 | 20 | 1024.5 |
| 20260902185155 | 74 | 265 | 0.0 | 0.0 | 0.00 | 0.00 | 0.00 | 20 | 1024.8 |
| 20260902184651 | 74 | 274 | 0.0 | 0.0 | 0.00 | 0.00 | 0.00 | 22 | 1024.5 |
| 20260902184143 | 74 | 191 | 0.0 | 0.9 | 0.00 | 0.00 | 0.00 | 22 | 1024.5 |
| 20260902183638 | 75 | 281 | 0.0 | 0.9 | 0.00 | 0.00 | 0.00 | 20 | 1024.1 |
| 20260902183133 | 75 | 220 | 0.0 | 0.0 | 0.00 | 0.00 | 0.00 | 22 | 1024.5 |
| 20260902182626 | 76 | 49 | 0.0 | 0.0 | 0.00 | 0.00 | 0.00 | 22 | 1024.5 |
| 20260902182120 | 76 | 194 | 0.0 | 0.9 | 0.00 | 0.00 | 0.00 | 22 | 1024.8 |
| 20260902181615 | 76 | 234 | 0.0 | 0.9 | 0.00 | 0.00 | 0.00 | 22 | 1024.5 |
| 20260902181108 | 76 | 234 | 0.0 | 0.0 | 0.00 | 0.00 | 0.00 | 16 | 1024.5 |
| 20260902180603 | 76 | 205 | 0.0 | 0.0 | 0.00 | 0.00 | 0.00 | 15 | 1024.5 |
| 20260902180100 | 76 | 226 | 0.0 | 0.0 | 0.00 | 0.00 | 0.00 | 18 | 1024.1 |
| 20260902175552 | 76 | 179 | 0.0 | 0.0 | 0.00 | 0.00 | 0.00 | 15 | 1024.1 |
| 20260902175547 | 75 | 246 | 0.0 | 0.0 | 0.00 | 0.00 | 0.00 | 17 | 1024.5 |
| 20260902174540 | 75 | 181 | 0.0 | 0.0 | 0.00 | 0.00 | 0.00 | 18 | 1024.5 |
| 20260902174034 | 74 | 207 | 0.0 | 0.0 | 0.00 | 0.00 | 0.00 | 20 | 1024.1 |
| 20260902174025 | 74 | 205 | 0.0 | 0.0 | 0.00 | 0.00 | 0.00 | 14 | 1024.5 |
| 20260902173629 | 74 | 152 | 0.0 | 0.0 | 0.00 | 0.00 | 0.00 | 20 | 1024.1 |
| 20260902172515 | 73 | 169 | 0.0 | 0.0 | 0.00 | 0.00 | 0.00 | 16 | 1024.5 |
| 20260902172010 | 72 | 130 | 0.0 | 0.0 | 0.00 | 0.00 | 0.00 | 21 | 1024.1 |
| 20260902171505 | 71 | 225 | 0.0 | 0.0 | 0.00 | 0.00 | 0.00 | 22 | 1024.1 |
| 20260902170959 | 71 | 184 | 0.0 | 0.0 | 0.00 | 0.00 | 0.00 | 20 | 1024.5 |
| 20260902170453 | 71 | 113 | 0.0 | 0.0 | 0.00 | 0.00 | 0.00 | 20 | 1024.1 |
| 20260902165948 | 71 | 157 | 0.0 | 0.0 | 0.00 | 0.00 | 0.00 | 20 | 1024.1 |
| 20260902165443 | 71 | 114 | 0.0 | 0.0 | 0.00 | 0.00 | 0.00 | 21 | 1024.1 |
| 20260902165438 | 70 | 202 | 0.0 | 0.0 | 0.00 | 0.00 | 0.00 | 22 | 1024.1 |
| 20260902164431 | 70 | 138 | 0.0 | 0.0 | 0.00 | 0.00 | 0.00 | 21 | 1024.1 |
| 20260902164424 | 70 | 178 | 0.0 | 0.0 | 0.00 | 0.00 | 0.00 | 20 | 1024.1 |
| 20260902163418 | 69 | 149 | 0.0 | 0.0 | 0.00 | 0.00 | 0.00 | 19 | 1024.5 |
| 20260902162913 | 69 | 177 | 0.0 | 0.0 | 0.00 | 0.00 | 0.00 | 22 | 1024.1 |
| 20260902162407 | 68 | 181 | 0.0 | 0.0 | 0.00 | 0.00 | 0.00 | 20 | 1024.1 |
| 20260902161900 | 67 | 232 | 0.0 | 0.0 | 0.00 | 0.00 | 0.00 | 22 | 1024.5 |
| 20260902161357 | 67 | 195 | 0.0 | 0.0 | 0.00 | 0.00 | 0.00 | 21 | 1024.1 |
| 20260902161351 | 66 | 219 | 0.0 | 0.0 | 0.00 | 0.00 | 0.00 | 25 | 1024.5 |
| 20260902160343 | 66 | 218 | 0.0 | 0.0 | 0.00 | 0.00 | 0.00 | 27 | 1024.5 |
| 20260902155839 | 65 | 154 | 0.0 | 0.0 | 0.00 | 0.00 | 0.00 | 27 | 1024.1 |
| 20260902155332 | 65 | 109 | 0.0 | 0.0 | 0.00 | 0.00 | 0.00 | 27 | 1024.5 |
| 20260902154826 | 64 | 125 | 0.0 | 0.0 | 0.00 | 0.00 | 0.00 | 29 | 1024.5 |
| 20260902154321 | 64 | 223 | 0.0 | 0.0 | 0.00 | 0.00 | 0.00 | 32 | 1024.5 |
| 20260902154315 | 63 | 249 | 0.0 | 0.0 | 0.00 | 0.00 | 0.00 | 32 | 1024.5 |
| 20260902153309 | 63 | 200 | 0.0 | 0.0 | 0.00 | 0.00 | 0.00 | 31 | 1024.8 |
| 20260902152804 | 62 | 172 | 0.0 | 0.0 | 0.00 | 0.00 | 0.00 | 32 | 1024.5 |
| 20260902152258 | 62 | 165 | 0.0 | 0.0 | 0.00 | 0.00 | 0.00 | 33 | 1024.5 |
| 20260902151753 | 62 | 186 | 0.0 | 0.0 | 0.00 | 0.00 | 0.00 | 32 | 1024.5 |
| 20260902151747 | 62 | 193 | 0.0 | 0.0 | 0.00 | 0.00 | 0.00 | 32 | 1024.1 |
| 20260902150740 | 62 | 200 | 0.0 | 0.0 | 0.00 | 0.00 | 0.00 | 32 | 1024.5 |
| 20260902150233 | 62 | 231 | 0.0 | 0.0 | 0.00 | 0.00 | 0.00 | 32 | 1024.1 |
| 20260902145729 | 62 | 206 | 0.0 | 0.0 | 0.00 | 0.00 | 0.00 | 32 | 1024.1 |
| 20260902145222 | 62 | 131 | 0.0 | 0.0 | 0.00 | 0.00 | 0.00 | 33 | 1023.8 |
| 20260902144716 | 62 | 168 | 0.0 | 0.0 | 0.00 | 0.00 | 0.00 | 33 | 1023.8 |
| 20260902144212 | 61 | 201 | 0.0 | 0.0 | 0.00 | 0.00 | 0.00 | 34 | 1023.8 |
| 20260902143704 | 61 | 137 | 0.0 | 0.0 | 0.00 | 0.00 | 0.00 | 35 | 1023.5 |
| 20260902143158 | 61 | 173 | 0.0 | 0.0 | 0.00 | 0.00 | 0.00 | 35 | 1023.8 |
| 20260902142654 | 61 | 193 | 0.0 | 0.0 | 0.00 | 0.00 | 0.00 | 35 | 1023.8 |
| 20260902142147 | 61 | 211 | 0.0 | 0.0 | 0.00 | 0.00 | 0.00 | 35 | 1023.8 |
| 20260902141641 | 61 | 189 | 0.0 | 0.0 | 0.00 | 0.00 | 0.00 | 36 | 1024.1 |
| 20260902141137 | 61 | 182 | 0.0 | 0.0 | 0.00 | 0.00 | 0.00 | 36 | 1023.8 |
| 20260902140631 | 61 | 217 | 0.0 | 0.0 | 0.00 | 0.00 | 0.00 | 36 | 1023.8 |
| 20260902140625 | 61 | 196 | 0.0 | 0.0 | 0.00 | 0.00 | 0.00 | 36 | 1023.8 |
| 20260902135620 | 61 | 208 | 0.0 | 0.0 | 0.00 | 0.00 | 0.00 | 36 | 1023.5 |
| 20260902135112 | 61 | 202 | 0.0 | 0.0 | 0.00 | 0.00 | 0.00 | 36 | 1023.5 |
| 20260902135107 | 61 | 195 | 0.0 | 0.0 | 0.00 | 0.00 | 0.00 | 36 | 1023.5 |
| 20260902134102 | 61 | 211 | 0.0 | 0.0 | 0.00 | 0.00 | 0.00 | 36 | 1023.8 |
| 20260902133558 | 60 | 146 | 0.0 | 0.0 | 0.00 | 0.00 | 0.00 | 36 | 1023.5 |
| 20260902133553 | 60 | 220 | 0.0 | 0.0 | 0.00 | 0.00 | 0.00 | 36 | 1023.5 |
| 20260902133046 | 60 | 218 | 0.0 | 0.0 | 0.00 | 0.00 | 0.00 | 37 | 1023.5 |
| 20260902132038 | 60 | 193 | 0.0 | 0.0 | 0.00 | 0.00 | 0.00 | 38 | 1023.1 |
| 20260902131532 | 60 | 203 | 0.0 | 0.0 | 0.00 | 0.00 | 0.00 | 38 | 1023.1 |
| 20260902131027 | 60 | 203 | 0.0 | 0.0 | 0.00 | 0.00 | 0.00 | 37 | 1022.8 |
| 20260902130520 | 60 | 202 | 0.0 | 0.0 | 0.00 | 0.00 | 0.00 | 37 | 1023.1 |
| 20260902130016 | 60 | 133 | 0.0 | 0.0 | 0.00 | 0.00 | 0.00 | 38 | 1023.1 |
| 20260902130010 | 60 | 188 | 0.0 | 0.0 | 0.00 | 0.00 | 0.00 | 38 | 1022.8 |
| 20260902125003 | 60 | 228 | 0.0 | 0.0 | 0.00 | 0.00 | 0.00 | 38 | 1022.8 |
| 20260902124457 | 60 | 213 | 0.0 | 0.0 | 0.00 | 0.00 | 0.00 | 38 | 1022.8 |
| 20260902123952 | 60 | 213 | 0.0 | 0.0 | 0.00 | 0.00 | 0.00 | 38 | 1022.8 |
| 20260902123445 | 60 | 211 | 0.0 | 0.0 | 0.00 | 0.00 | 0.00 | 38 | 1022.8 |
| 20260902122939 | 60 | 203 | 0.0 | 0.0 | 0.00 | 0.00 | 0.00 | 38 | 1022.8 |
| 20260902122435 | 60 | 201 | 0.0 | 0.0 | 0.00 | 0.00 | 0.00 | 38 | 1023.1 |
| 20260902121928 | 60 | 190 | 0.0 | 0.0 | 0.00 | 0.00 | 0.00 | 38 | 1022.8 |
| 20260902121423 | 60 | 230 | 0.0 | 0.0 | 0.00 | 0.00 | 0.00 | 38 | 1023.1 |
| 20260902120917 | 60 | 187 | 0.0 | 0.0 | 0.00 | 0.00 | 0.00 | 38 | 1022.8 |
| 20260902120411 | 60 | 207 | 0.0 | 0.0 | 0.00 | 0.00 | 0.00 | 38 | 1023.1 |
| 20260902115905 | 60 | 207 | 0.0 | 0.0 | 0.00 | 0.00 | 0.00 | 38 | 1023.1 |
| 20260902115401 | 60 | 219 | 0.0 | 0.0 | 0.00 | 0.00 | 0.00 | 38 | 1022.8 |
| 20260902115354 | 61 | 219 | 0.0 | 0.0 | 0.00 | 0.00 | 0.00 | 37 | 1023.1 |
| 20260902114348 | 61 | 236 | 0.0 | 0.0 | 0.00 | 0.00 | 0.00 | 37 | 1023.1 |
| 20260902113843 | 61 | 218 | 0.0 | 0.0 | 0.00 | 0.00 | 0.00 | 37 | 1022.8 |
| 20260902113336 | 61 | 215 | 0.0 | 0.0 | 0.00 | 0.00 | 0.00 | 36 | 1023.1 |
| 20260902112830 | 62 | 177 | 0.0 | 0.0 | 0.00 | 0.00 | 0.00 | 35 | 1023.1 |
| 20260902112325 | 62 | 120 | 0.0 | 0.0 | 0.00 | 0.00 | 0.00 | 35 | 1023.5 |
| 20260902111818 | 62 | 198 | 0.0 | 0.0 | 0.00 | 0.00 | 0.00 | 34 | 1023.1 |
| 20260902111313 | 62 | 161 | 0.0 | 0.0 | 0.00 | 0.00 | 0.00 | 34 | 1023.5 |
| 20260902110808 | 62 | 220 | 0.0 | 0.0 | 0.00 | 0.00 | 0.00 | 35 | 1023.5 |
| 20260902110301 | 62 | 223 | 0.0 | 0.0 | 0.00 | 0.00 | 0.00 | 34 | 1023.5 |
| 20260902105755 | 62 | 196 | 0.0 | 0.0 | 0.00 | 0.00 | 0.00 | 34 | 1023.5 |
| 20260902105251 | 61 | 203 | 0.0 | 0.0 | 0.00 | 0.00 | 0.00 | 35 | 1023.8 |
| 20260902104745 | 61 | 213 | 0.0 | 0.0 | 0.00 | 0.00 | 0.00 | 36 | 1023.8 |
| 20260902104239 | 61 | 208 | 0.0 | 0.0 | 0.00 | 0.00 | 0.00 | 36 | 1023.8 |
| 20260902103733 | 61 | 208 | 0.0 | 0.0 | 0.00 | 0.00 | 0.00 | 35 | 1023.8 |
| 20260902103226 | 61 | 210 | 0.0 | 0.0 | 0.00 | 0.00 | 0.00 | 36 | 1023.5 |
| 20260902102721 | 61 | 244 | 0.0 | 0.0 | 0.00 | 0.00 | 0.00 | 36 | 1023.8 |
| 20260902102216 | 60 | 235 | 0.0 | 0.0 | 0.00 | 0.00 | 0.00 | 37 | 1023.8 |
| 20260902102209 | 60 | 252 | 0.0 | 0.0 | 0.00 | 0.00 | 0.00 | 37 | 1023.5 |
| 20260902101204 | 60 | 239 | 0.0 | 0.0 | 0.00 | 0.00 | 0.00 | 38 | 1023.8 |
| 20260902100658 | 60 | 218 | 0.0 | 0.0 | 0.00 | 0.00 | 0.00 | 39 | 1023.8 |
| 20260902100151 | 60 | 225 | 0.0 | 0.0 | 0.00 | 0.00 | 0.00 | 39 | 1023.8 |
| 20260902095645 | 60 | 231 | 0.0 | 0.0 | 0.00 | 0.00 | 0.00 | 39 | 1023.8 |
| 20260902095142 | 60 | 216 | 0.0 | 0.0 | 0.00 | 0.00 | 0.00 | 39 | 1023.8 |
| 20260902094634 | 60 | 218 | 0.0 | 0.0 | 0.00 | 0.00 | 0.00 | 39 | 1023.8 |
| 20260902094128 | 60 | 211 | 0.0 | 0.0 | 0.00 | 0.00 | 0.00 | 39 | 1023.8 |
| 20260902094119 | 61 | 242 | 0.0 | 0.0 | 0.00 | 0.00 | 0.00 | 39 | 1023.5 |
| 20260902093725 | 61 | 229 | 0.0 | 0.0 | 0.00 | 0.00 | 0.00 | 39 | 1023.5 |
| 20260902092611 | 61 | 258 | 0.0 | 0.0 | 0.00 | 0.00 | 0.00 | 39 | 1023.8 |
| 20260902092107 | 61 | 217 | 0.0 | 0.0 | 0.00 | 0.00 | 0.00 | 38 | 1023.8 |
| 20260902091600 | 62 | 233 | 0.0 | 0.0 | 0.00 | 0.00 | 0.00 | 37 | 1023.5 |
| 20260902091555 | 62 | 202 | 0.0 | 0.0 | 0.00 | 0.00 | 0.00 | 36 | 1023.5 |
| 20260902090550 | 62 | 202 | 0.0 | 0.0 | 0.00 | 0.00 | 0.00 | 36 | 1023.5 |
| 20260902090544 | 62 | 238 | 0.0 | 0.0 | 0.00 | 0.00 | 0.00 | 35 | 1023.5 |
| 20260902085536 | 62 | 218 | 0.0 | 0.0 | 0.00 | 0.00 | 0.00 | 36 | 1023.5 |
| 20260902085032 | 62 | 226 | 0.0 | 0.0 | 0.00 | 0.00 | 0.00 | 35 | 1023.5 |
| 20260902084525 | 62 | 231 | 0.0 | 0.0 | 0.00 | 0.00 | 0.00 | 35 | 1023.5 |
| 20260902084019 | 62 | 224 | 0.0 | 0.0 | 0.00 | 0.00 | 0.00 | 35 | 1023.5 |
| 20260902083514 | 62 | 234 | 0.0 | 0.0 | 0.00 | 0.00 | 0.00 | 35 | 1023.1 |
| 20260902083007 | 62 | 232 | 0.0 | 0.0 | 0.00 | 0.00 | 0.00 | 35 | 1023.5 |
| 20260902082501 | 62 | 233 | 0.0 | 0.0 | 0.00 | 0.00 | 0.00 | 35 | 1023.5 |
| 20260902081957 | 63 | 250 | 0.0 | 0.0 | 0.00 | 0.00 | 0.00 | 35 | 1023.5 |
| 20260902081450 | 63 | 234 | 0.0 | 0.0 | 0.00 | 0.00 | 0.00 | 34 | 1023.5 |
| 20260902080945 | 63 | 247 | 0.0 | 0.0 | 0.00 | 0.00 | 0.00 | 33 | 1023.5 |
| 20260902080440 | 63 | 206 | 0.0 | 0.0 | 0.00 | 0.00 | 0.00 | 33 | 1023.5 |
| 20260902075939 | 62 | 234 | 0.0 | 0.0 | 0.00 | 0.01 | 0.00 | 34 | 1023.1 |
| 20260902075433 | 62 | 222 | 0.0 | 0.0 | 0.00 | 0.01 | 0.00 | 33 | 1023.5 |
| 20260902075426 | 62 | 219 | 0.0 | 0.0 | 0.00 | 0.01 | 0.00 | 32 | 1023.5 |
| 20260902075028 | 62 | 233 | 0.0 | 0.0 | 0.00 | 0.01 | 0.00 | 33 | 1023.5 |
| 20260902073917 | 62 | 133 | 0.0 | 0.0 | 0.00 | 0.01 | 0.00 | 31 | 1023.5 |
| 20260902073412 | 62 | 338 | 0.0 | 0.0 | 0.00 | 0.01 | 0.00 | 31 | 1023.1 |
| 20260902072907 | 62 | 234 | 0.0 | 0.0 | 0.00 | 0.01 | 0.00 | 32 | 1023.1 |
| 20260902072902 | 62 | 250 | 0.0 | 0.0 | 0.00 | 0.01 | 0.00 | 32 | 1023.1 |
| 20260902071856 | 62 | 202 | 0.0 | 0.0 | 0.00 | 0.01 | 0.00 | 33 | 1023.5 |
| 20260902071351 | 62 | 203 | 0.0 | 0.0 | 0.00 | 0.01 | 0.00 | 33 | 1023.1 |
| 20260902070846 | 62 | 225 | 0.0 | 0.0 | 0.00 | 0.01 | 0.00 | 33 | 1023.1 |
| 20260902070342 | 62 | 218 | 0.0 | 0.0 | 0.00 | 0.01 | 0.00 | 33 | 1023.5 |
| 20260902070336 | 62 | 218 | 0.0 | 0.0 | 0.00 | 0.01 | 0.01 | 34 | 1023.1 |
| 20260902065329 | 62 | 230 | 0.0 | 0.0 | 0.00 | 0.01 | 0.01 | 34 | 1023.1 |
| 20260902064826 | 62 | 245 | 0.0 | 0.0 | 0.00 | 0.01 | 0.01 | 34 | 1023.5 |
| 20260902064319 | 62 | 195 | 0.0 | 0.0 | 0.00 | 0.01 | 0.01 | 33 | 1023.1 |
| 20260902063814 | 63 | 195 | 0.0 | 0.0 | 0.00 | 0.01 | 0.01 | 33 | 1023.5 |
| 20260902063309 | 63 | 196 | 0.0 | 0.0 | 0.00 | 0.01 | 0.01 | 33 | 1023.5 |
| 20260902062804 | 63 | 206 | 0.0 | 0.0 | 0.00 | 0.01 | 0.01 | 32 | 1023.1 |
| 20260902062259 | 63 | 226 | 0.0 | 0.0 | 0.00 | 0.01 | 0.01 | 32 | 1023.5 |
| 20260902061753 | 63 | 217 | 0.0 | 0.0 | 0.00 | 0.01 | 0.01 | 31 | 1023.5 |
| 20260902061249 | 63 | 251 | 0.0 | 0.0 | 0.00 | 0.01 | 0.01 | 31 | 1023.1 |
| 20260902061243 | 63 | 203 | 0.0 | 0.0 | 0.00 | 0.01 | 0.01 | 31 | 1023.1 |
| 20260902060238 | 63 | 207 | 0.0 | 0.0 | 0.00 | 0.01 | 0.01 | 31 | 1023.1 |
| 20260902055732 | 63 | 247 | 0.0 | 0.0 | 0.00 | 0.01 | 0.01 | 31 | 1023.5 |
| 20260902055227 | 63 | 274 | 0.0 | 0.0 | 0.00 | 0.01 | 0.01 | 31 | 1023.5 |
| 20260902055222 | 63 | 240 | 0.0 | 0.0 | 0.00 | 0.01 | 0.01 | 33 | 1023.5 |
| 20260902054216 | 63 | 218 | 0.0 | 0.0 | 0.00 | 0.01 | 0.01 | 32 | 1023.5 |
| 20260902053710 | 63 | 218 | 0.0 | 0.0 | 0.00 | 0.01 | 0.01 | 31 | 1023.5 |
| 20260902053205 | 63 | 238 | 0.0 | 0.0 | 0.00 | 0.01 | 0.01 | 31 | 1023.5 |
| 20260902052659 | 63 | 221 | 0.0 | 0.0 | 0.00 | 0.01 | 0.01 | 31 | 1023.5 |
| 20260902052155 | 63 | 210 | 0.0 | 0.0 | 0.00 | 0.01 | 0.01 | 31 | 1023.5 |
| 20260902051649 | 63 | 252 | 0.0 | 0.0 | 0.00 | 0.01 | 0.01 | 31 | 1023.5 |
| 20260902051143 | 63 | 227 | 0.0 | 0.0 | 0.00 | 0.01 | 0.01 | 31 | 1023.5 |
| 20260902050638 | 63 | 238 | 0.0 | 0.0 | 0.00 | 0.01 | 0.01 | 31 | 1023.8 |
| 20260902050633 | 63 | 219 | 0.0 | 0.0 | 0.00 | 0.01 | 0.01 | 30 | 1023.5 |
| 20260902045628 | 64 | 206 | 0.0 | 0.0 | 0.00 | 0.01 | 0.01 | 30 | 1023.8 |
| 20260902045122 | 64 | 217 | 0.0 | 0.0 | 0.00 | 0.01 | 0.01 | 30 | 1023.5 |
| 20260902044617 | 64 | 189 | 0.0 | 0.0 | 0.00 | 0.01 | 0.01 | 29 | 1023.8 |
| 20260902044112 | 64 | 217 | 0.0 | 0.0 | 0.00 | 0.01 | 0.01 | 29 | 1023.5 |
| 20260902043607 | 64 | 197 | 0.0 | 0.0 | 0.00 | 0.01 | 0.01 | 29 | 1023.5 |
| 20260902043101 | 64 | 201 | 0.0 | 0.0 | 0.00 | 0.01 | 0.01 | 28 | 1023.5 |
| 20260902042556 | 65 | 208 | 0.0 | 0.9 | 0.00 | 0.01 | 0.01 | 30 | 1023.5 |
| 20260902042052 | 65 | 281 | 0.0 | 0.9 | 0.00 | 0.01 | 0.01 | 30 | 1023.5 |
| 20260902042047 | 65 | 242 | 0.0 | 0.0 | 0.00 | 0.01 | 0.01 | 30 | 1023.5 |
| 20260902041040 | 66 | 252 | 0.0 | 0.0 | 0.00 | 0.01 | 0.01 | 30 | 1023.5 |
| 20260902040535 | 66 | 242 | 0.0 | 0.0 | 0.00 | 0.01 | 0.01 | 29 | 1023.5 |
| 20260902040528 | 67 | 249 | 0.0 | 0.0 | 0.00 | 0.01 | 0.01 | 30 | 1023.1 |
| 20260902040133 | 66 | 246 | 0.0 | 0.0 | 0.00 | 0.01 | 0.01 | 31 | 1023.5 |
| 20260902035021 | 67 | 184 | 0.0 | 0.0 | 0.00 | 0.01 | 0.01 | 29 | 1023.1 |
| 20260902035015 | 67 | 258 | 0.0 | 0.0 | 0.00 | 0.01 | 0.01 | 28 | 1023.1 |
| 20260902034011 | 67 | 188 | 0.0 | 0.0 | 0.00 | 0.01 | 0.01 | 28 | 1023.1 |
| 20260902034006 | 67 | 277 | 0.0 | 0.0 | 0.00 | 0.01 | 0.01 | 28 | 1023.1 |
| 20260902032959 | 67 | 277 | 0.0 | 0.0 | 0.00 | 0.01 | 0.01 | 27 | 1023.1 |
| 20260902032454 | 67 | 183 | 0.0 | 0.0 | 0.00 | 0.01 | 0.01 | 27 | 1022.8 |
| 20260902031948 | 67 | 240 | 0.0 | 0.0 | 0.00 | 0.01 | 0.01 | 27 | 1023.1 |
| 20260902031442 | 67 | 210 | 0.0 | 0.0 | 0.00 | 0.01 | 0.01 | 27 | 1022.4 |
| 20260902030937 | 67 | 95 | 0.0 | 0.9 | 0.00 | 0.01 | 0.01 | 27 | 1022.8 |
| 20260902030432 | 68 | 244 | 0.0 | 0.9 | 0.00 | 0.01 | 0.01 | 27 | 1022.4 |
| 20260902025926 | 68 | 223 | 0.0 | 0.0 | 0.00 | 0.01 | 0.01 | 27 | 1022.8 |
| 20260902025425 | 68 | 202 | 0.0 | 0.0 | 0.00 | 0.01 | 0.01 | 27 | 1022.4 |
| 20260902025421 | 68 | 237 | 0.0 | 0.0 | 0.00 | 0.01 | 0.01 | 27 | 1022.4 |
| 20260902024410 | 68 | 203 | 0.0 | 0.0 | 0.00 | 0.01 | 0.01 | 27 | 1022.4 |
| 20260902023905 | 68 | 232 | 0.0 | 0.0 | 0.00 | 0.01 | 0.01 | 26 | 1022.4 |
| 20260902023400 | 69 | 267 | 0.0 | 0.0 | 0.00 | 0.01 | 0.01 | 25 | 1022.1 |
| 20260902022854 | 69 | 248 | 0.0 | 0.0 | 0.00 | 0.01 | 0.01 | 25 | 1022.1 |
| 20260902022349 | 69 | 279 | 0.0 | 0.0 | 0.00 | 0.01 | 0.01 | 25 | 1022.4 |
| 20260902021844 | 69 | 258 | 0.0 | 0.0 | 0.00 | 0.01 | 0.01 | 24 | 1022.4 |
| 20260902021338 | 69 | 227 | 0.0 | 0.0 | 0.00 | 0.01 | 0.01 | 24 | 1022.1 |
| 20260902021329 | 70 | 298 | 0.0 | 1.7 | 0.00 | 0.01 | 0.01 | 23 | 1022.1 |
| 20260902020933 | 69 | 300 | 0.0 | 0.0 | 0.00 | 0.01 | 0.01 | 23 | 1022.1 |
| 20260902015823 | 70 | 307 | 0.9 | 1.7 | 0.00 | 0.01 | 0.01 | 22 | 1022.1 |
| 20260902015318 | 70 | 249 | 0.0 | 0.0 | 0.00 | 0.01 | 0.01 | 23 | 1022.1 |
| 20260902014812 | 70 | 207 | 0.0 | 0.0 | 0.00 | 0.01 | 0.01 | 21 | 1022.1 |
| 20260902014307 | 71 | 225 | 0.0 | 0.9 | 0.00 | 0.01 | 0.01 | 21 | 1021.8 |
| 20260902013802 | 71 | 186 | 0.0 | 0.9 | 0.00 | 0.01 | 0.01 | 21 | 1021.8 |
| 20260902013257 | 71 | 202 | 0.0 | 0.9 | 0.00 | 0.01 | 0.01 | 20 | 1022.1 |
| 20260902012247 | 71 | 307 | 0.0 | 2.6 | 0.00 | 0.01 | 0.01 | 21 | 1022.1 |
| 20260902012242 | 71 | 251 | 0.0 | 0.0 | 0.00 | 0.01 | 0.01 | 20 | 1021.8 |
| 20260902011236 | 72 | 114 | 0.0 | 0.9 | 0.00 | 0.01 | 0.01 | 20 | 1022.1 |
| 20260902010730 | 72 | 49 | 0.0 | 1.7 | 0.00 | 0.01 | 0.01 | 20 | 1021.8 |
| 20260902010225 | 72 | 288 | 0.0 | 2.6 | 0.00 | 0.01 | 0.01 | 19 | 1021.8 |
| 20260902005719 | 72 | 303 | 0.0 | 2.6 | 0.00 | 0.01 | 0.01 | 18 | 1021.8 |
| 20260902005214 | 72 | 230 | 0.0 | 0.9 | 0.00 | 0.01 | 0.01 | 18 | 1021.8 |
| 20260902004709 | 73 | 339 | 0.0 | 0.9 | 0.00 | 0.01 | 0.01 | 18 | 1021.8 |
| 20260902004204 | 73 | 285 | 0.0 | 1.7 | 0.00 | 0.01 | 0.01 | 18 | 1021.8 |
| 20260902003700 | 73 | 306 | 0.0 | 1.7 | 0.00 | 0.01 | 0.01 | 18 | 1021.8 |
| 20260902003655 | 73 | 228 | 0.0 | 1.7 | 0.00 | 0.01 | 0.01 | 18 | 1021.4 |
| 20260902002648 | 73 | 101 | 0.0 | 3.5 | 0.00 | 0.01 | 0.01 | 18 | 1021.8 |
| 20260902002143 | 73 | 237 | 0.0 | 3.5 | 0.00 | 0.01 | 0.01 | 18 | 1021.8 |
| 20260902001637 | 73 | 265 | 0.0 | 0.9 | 0.00 | 0.01 | 0.01 | 18 | 1021.8 |
| 20260902001132 | 74 | 241 | 0.0 | 2.6 | 0.00 | 0.01 | 0.01 | 18 | 1021.4 |
| 20260902000627 | 74 | 300 | 0.0 | 2.6 | 0.00 | 0.01 | 0.01 | 18 | 1021.4 |
| 20260902000121 | 74 | 215 | 0.0 | 3.5 | 0.00 | 0.01 | 0.01 | 18 | 1021.4 |
| 20260901235616 | 74 | 319 | 0.0 | 3.5 | 0.00 | 0.01 | 0.01 | 14 | 1021.4 |
| 20260901235610 | 74 | 200 | 0.0 | 2.6 | 0.00 | 0.01 | 0.01 | 14 | 1021.4 |
| 20260901234604 | 75 | 58 | 0.0 | 2.6 | 0.00 | 0.01 | 0.01 | 13 | 1021.4 |
| 20260901234059 | 75 | 183 | 0.0 | 0.9 | 0.00 | 0.01 | 0.01 | 13 | 1021.4 |
| 20260901233554 | 75 | 199 | 0.0 | 0.9 | 0.00 | 0.01 | 0.01 | 12 | 1021.4 |
| 20260901233049 | 75 | 278 | 0.0 | 2.6 | 0.00 | 0.01 | 0.01 | 12 | 1021.4 |
| 20260901232544 | 76 | 314 | 0.0 | 2.6 | 0.00 | 0.01 | 0.01 | 14 | 1021.4 |
| 20260901232038 | 76 | 304 | 0.0 | 1.7 | 0.00 | 0.01 | 0.01 | 13 | 1021.8 |
| 20260901232033 | 76 | 196 | 0.0 | 1.7 | 0.00 | 0.01 | 0.01 | 12 | 1021.4 |
| 20260901231029 | 77 | 273 | 0.0 | 2.6 | 0.00 | 0.01 | 0.01 | 12 | 1021.4 |
| 20260901231024 | 77 | 197 | 0.0 | 2.6 | 0.00 | 0.01 | 0.01 | 11 | 1021.8 |
| 20260901230018 | 78 | 217 | 0.0 | 2.6 | 0.00 | 0.01 | 0.01 | 11 | 1021.8 |
| 20260901225512 | 78 | 214 | 0.0 | 0.9 | 0.00 | 0.01 | 0.01 | 10 | 1021.8 |
| 20260901225507 | 79 | 244 | 0.0 | 0.9 | 0.00 | 0.01 | 0.01 | 10 | 1021.4 |
| 20260901224502 | 79 | 162 | 0.0 | 1.7 | 0.00 | 0.01 | 0.01 | 10 | 1021.4 |
| 20260901223956 | 79 | 271 | 0.0 | 2.6 | 0.00 | 0.01 | 0.01 | 11 | 1021.4 |
| 20260901223451 | 79 | 288 | 0.0 | 2.6 | 0.00 | 0.01 | 0.01 | 11 | 1021.4 |
| 20260901222945 | 80 | 250 | 0.0 | 1.7 | 0.00 | 0.01 | 0.01 | 11 | 1021.8 |
| 20260901222442 | 80 | 0 | 0.0 | 1.7 | 0.00 | 0.01 | 0.01 | 10 | 1021.8 |
| 20260901222436 | 80 | 336 | 0.0 | 0.0 | 0.00 | 0.01 | 0.01 | 10 | 1021.8 |
| 20260901221431 | 80 | 144 | 0.0 | 0.9 | 0.00 | 0.01 | 0.01 | 10 | 1021.8 |
| 20260901221426 | 80 | 242 | 0.0 | 0.9 | 0.00 | 0.01 | 0.01 | 10 | 1021.8 |
| 20260901220421 | 80 | 204 | 0.0 | 0.0 | 0.00 | 0.01 | 0.01 | 10 | 1021.8 |
| 20260901220415 | 80 | 220 | 0.0 | 0.0 | 0.00 | 0.01 | 0.01 | 10 | 1022.1 |
| 20260901215408 | 80 | 270 | 0.0 | 0.0 | 0.00 | 0.01 | 0.01 | 10 | 1021.8 |
| 20260901214904 | 81 | 281 | 0.0 | 0.0 | 0.00 | 0.01 | 0.01 | 10 | 1021.8 |
| 20260901214854 | 81 | 206 | 0.0 | 0.9 | 0.00 | 0.01 | 0.01 | 10 | 1022.1 |
| 20260901214459 | 80 | 194 | 0.0 | 0.9 | 0.00 | 0.01 | 0.01 | 10 | 1022.1 |
| 20260901213348 | 81 | 246 | 0.0 | 5.2 | 0.00 | 0.01 | 0.01 | 10 | 1022.1 |
| 20260901212842 | 81 | 250 | 0.0 | 5.2 | 0.00 | 0.01 | 0.01 | 10 | 1022.1 |
| 20260901212337 | 80 | 225 | 0.0 | 0.0 | 0.00 | 0.01 | 0.01 | 12 | 1022.1 |
| 20260901211832 | 79 | 266 | 0.0 | 0.0 | 0.00 | 0.01 | 0.01 | 10 | 1022.1 |
| 20260901211326 | 79 | 189 | 0.0 | 0.0 | 0.00 | 0.01 | 0.01 | 10 | 1022.1 |
| 20260901210820 | 78 | 215 | 0.0 | 0.0 | 0.00 | 0.01 | 0.01 | 10 | 1022.1 |
| 20260901210316 | 77 | 249 | 0.0 | 0.0 | 0.00 | 0.01 | 0.01 | 10 | 1022.1 |
| 20260901205810 | 77 | 298 | 0.0 | 0.0 | 0.00 | 0.01 | 0.01 | 10 | 1022.1 |
| 20260901205306 | 76 | 175 | 0.0 | 0.0 | 0.00 | 0.01 | 0.01 | 10 | 1021.8 |
| 20260901205300 | 76 | 233 | 0.0 | 0.0 | 0.00 | 0.01 | 0.01 | 10 | 1021.8 |